Time,TemperatureF,DewpointF,PressureIn,WindDirection,WindDirectionDegrees,WindSpeedMPH,WindSpeedGustMPH,Humidity,HourlyPrecipIn,Conditions,Clouds,dailyrainin,SolarRadiationWatts/m^2,SoftwareType,DateUTC
2013-04-15 00:00:00,21.6,11.3,29.86,NNW,337,1.0,1.0,64,0.00,,,0.03,0,Wunderground v.1.15,2013-04-15 06:00:00,
2013-04-15 00:10:00,21.9,11.9,29.88,SSE,165,0.0,2.0,65,0.00,,,0.00,0,Wunderground v.1.15,2013-04-15 06:10:00,
2013-04-15 00:20:00,21.7,12.8,29.88,South,173,1.0,1.0,68,0.00,,,0.00,0,Wunderground v.1.15,2013-04-15 06:20:00,
2013-04-15 00:30:00,21.6,13.3,29.87,SSW,195,1.0,1.0,70,0.00,,,0.00,0,Wunderground v.1.15,2013-04-15 06:30:00,
2013-04-15 00:40:00,21.5,13.5,29.88,SSW,195,0.0,0.0,71,0.00,,,0.00,0,Wunderground v.1.15,2013-04-15 06:40:00,
2013-04-15 00:50:00,21.5,14.2,29.88,South,186,1.0,1.0,73,0.00,,,0.00,0,Wunderground v.1.15,2013-04-15 06:50:00,
2013-04-15 01:00:00,21.2,14.5,29.88,South,186,0.0,0.0,75,0.00,,,0.00,0,Wunderground v.1.15,2013-04-15 07:00:00,
2013-04-15 01:50:00,21.3,15.8,29.87,South,186,0.0,0.0,79,0.00,,,0.00,0,Wunderground v.1.15,2013-04-15 07:50:00,
2013-04-15 02:00:00,21.5,16.0,29.86,South,186,0.0,0.0,79,0.00,,,0.00,0,Wunderground v.1.15,2013-04-15 08:00:00,
2013-04-15 02:10:00,21.1,15.6,29.87,South,186,0.0,0.0,79,0.00,,,0.00,0,Wunderground v.1.15,2013-04-15 08:10:00,
2013-04-15 02:20:00,20.8,15.9,29.87,South,186,0.0,0.0,81,0.00,,,0.00,0,Wunderground v.1.15,2013-04-15 08:20:00,
2013-04-15 02:30:00,20.7,15.8,29.86,South,186,0.0,0.0,81,0.00,,,0.00,0,Wunderground v.1.15,2013-04-15 08:30:00,
2013-04-15 02:40:00,20.8,16.2,29.86,South,186,0.0,0.0,82,0.00,,,0.00,0,Wunderground v.1.15,2013-04-15 08:40:00,
2013-04-15 02:50:00,21.1,16.2,29.85,South,186,0.0,0.0,81,0.00,,,0.00,0,Wunderground v.1.15,2013-04-15 08:50:00,
2013-04-15 03:00:00,21.3,16.4,29.84,South,186,0.0,0.0,81,0.00,,,0.00,0,Wunderground v.1.15,2013-04-15 09:00:00,
2013-04-15 03:10:00,21.6,16.7,29.84,South,186,0.0,0.0,81,0.00,,,0.01,0,Wunderground v.1.15,2013-04-15 09:10:00,
2013-04-15 03:20:00,22.1,17.2,29.84,South,186,0.0,0.0,81,0.00,,,0.01,0,Wunderground v.1.15,2013-04-15 09:20:00,
2013-04-15 03:30:00,22.1,16.9,29.83,South,186,0.0,0.0,80,0.00,,,0.01,0,Wunderground v.1.15,2013-04-15 09:30:00,
2013-04-15 03:40:00,20.6,15.7,29.82,South,186,0.0,0.0,81,0.00,,,0.01,0,Wunderground v.1.15,2013-04-15 09:40:00,
2013-04-15 03:50:00,19.7,15.6,29.83,South,186,0.0,0.0,84,0.00,,,0.01,0,Wunderground v.1.15,2013-04-15 09:50:00,
2013-04-15 04:00:00,19.9,16.1,29.82,South,186,0.0,0.0,85,0.00,,,0.01,0,Wunderground v.1.15,2013-04-15 10:00:00,
2013-04-15 04:10:00,19.9,15.8,29.83,South,186,0.0,3.0,84,0.00,,,0.01,0,Wunderground v.1.15,2013-04-15 10:10:00,
2013-04-15 04:20:00,19.1,15.3,29.83,South,186,2.0,2.0,85,0.00,,,0.02,0,Wunderground v.1.15,2013-04-15 10:20:00,
2013-04-15 04:30:00,19.2,15.7,29.84,South,186,0.0,0.0,86,0.00,,,0.02,0,Wunderground v.1.15,2013-04-15 10:30:00,
2013-04-15 04:40:00,19.2,15.7,29.83,South,186,0.0,0.0,86,0.00,,,0.02,0,Wunderground v.1.15,2013-04-15 10:40:00,
2013-04-15 04:50:00,19.3,15.8,29.82,NE,34,1.0,2.0,86,0.00,,,0.02,0,Wunderground v.1.15,2013-04-15 10:50:00,
2013-04-15 05:00:00,19.3,15.5,29.82,NNE,13,2.0,2.0,85,0.00,,,0.02,0,Wunderground v.1.15,2013-04-15 11:00:00,
2013-04-15 05:10:00,19.4,15.6,29.82,NNE,13,0.0,0.0,85,0.00,,,0.03,0,Wunderground v.1.15,2013-04-15 11:10:00,
2013-04-15 05:20:00,19.5,15.7,29.83,NNE,12,1.0,1.0,85,0.06,,,0.04,0,Wunderground v.1.15,2013-04-15 11:20:00,
2013-04-15 05:30:00,19.5,15.7,29.82,North,355,2.0,2.0,85,0.04,,,0.04,0,Wunderground v.1.15,2013-04-15 11:30:00,
2013-04-15 05:40:00,19.5,15.5,29.82,North,355,1.0,1.0,84,0.00,,,0.04,0,Wunderground v.1.15,2013-04-15 11:40:00,
2013-04-15 05:50:00,19.6,15.6,29.82,North,355,0.0,0.0,84,0.00,,,0.05,0,Wunderground v.1.15,2013-04-15 11:50:00,
2013-04-15 06:00:00,19.7,15.9,29.82,North,355,0.0,0.0,85,0.07,,,0.06,0,Wunderground v.1.15,2013-04-15 12:00:00,
2013-04-15 06:11:00,19.7,15.6,29.82,North,355,1.0,1.0,84,0.04,,,0.06,0,Wunderground v.1.15,2013-04-15 12:11:00,
2013-04-15 06:30:00,19.7,15.9,29.82,NNW,347,0.0,0.0,85,0.00,,,0.07,0,Wunderground v.1.15,2013-04-15 12:30:00,
2013-04-15 06:40:00,19.7,15.9,29.83,NNW,347,0.0,0.0,85,0.00,,,0.07,0,Wunderground v.1.15,2013-04-15 12:40:00,
2013-04-15 06:50:00,19.7,15.6,29.83,NNW,348,1.0,1.0,84,0.00,,,0.08,7,Wunderground v.1.15,2013-04-15 12:50:00,
2013-04-15 07:00:00,19.7,15.6,29.82,NE,44,1.0,3.0,84,0.00,,,0.08,14,Wunderground v.1.15,2013-04-15 13:00:00,
2013-04-15 07:10:00,19.2,15.4,29.83,NE,51,1.0,1.0,85,0.00,,,0.08,16,Wunderground v.1.15,2013-04-15 13:10:00,
2013-04-15 07:20:00,19.5,15.7,29.83,NNE,26,1.0,1.0,85,0.00,,,0.08,42,Wunderground v.1.15,2013-04-15 13:20:00,
2013-04-15 07:30:00,19.8,15.5,29.82,NNE,26,0.0,2.0,83,0.00,,,0.08,23,Wunderground v.1.15,2013-04-15 13:30:00,
2013-04-15 07:40:00,19.9,15.6,29.82,NNE,26,2.0,2.0,83,0.00,,,0.08,32,Wunderground v.1.15,2013-04-15 13:40:00,
2013-04-15 07:51:00,20.2,15.6,29.83,NNE,28,0.0,3.0,82,0.00,,,0.08,35,Wunderground v.1.15,2013-04-15 13:51:00,
2013-04-15 08:00:00,19.7,15.1,29.83,NE,49,2.0,3.0,82,0.00,,,0.08,46,Wunderground v.1.15,2013-04-15 14:00:00,
2013-04-15 08:10:00,19.4,15.1,29.84,East,81,3.0,3.0,83,0.00,,,0.08,67,Wunderground v.1.15,2013-04-15 14:10:00,
2013-04-15 08:20:00,19.3,15.3,29.82,ESE,103,3.0,9.0,84,0.00,,,0.08,81,Wunderground v.1.15,2013-04-15 14:20:00,
2013-04-15 08:30:00,19.4,15.6,29.84,East,91,3.0,3.0,85,0.00,,,0.08,105,Wunderground v.1.15,2013-04-15 14:30:00,
2013-04-15 08:50:00,21.3,16.9,29.83,ENE,68,2.0,5.0,83,0.00,,,0.08,109,Wunderground v.1.15,2013-04-15 14:50:00,
2013-04-15 09:00:00,22.3,17.4,29.85,NE,44,2.0,2.0,81,0.00,,,0.08,77,Wunderground v.1.15,2013-04-15 15:00:00,
2013-04-15 09:20:00,19.7,15.6,29.83,ENE,72,8.0,9.0,84,0.00,,,0.08,130,Wunderground v.1.15,2013-04-15 15:20:00,
2013-04-15 09:30:00,19.3,15.5,29.83,ENE,72,8.0,8.0,85,0.00,,,0.09,163,Wunderground v.1.15,2013-04-15 15:30:00,
2013-04-15 09:40:00,20.2,16.4,29.83,NE,49,6.0,6.0,85,0.00,,,0.09,216,Wunderground v.1.15,2013-04-15 15:40:00,
2013-04-15 09:50:00,21.9,17.5,29.83,NE,40,5.0,5.0,83,0.00,,,0.10,330,Wunderground v.1.15,2013-04-15 15:50:00,
2013-04-15 10:01:00,23.2,17.9,29.84,NE,44,5.0,5.0,80,0.00,,,0.10,404,Wunderground v.1.15,2013-04-15 16:01:00,
2013-04-15 10:10:00,23.5,17.6,29.84,ENE,63,5.0,8.0,78,0.00,,,0.10,534,Wunderground v.1.15,2013-04-15 16:10:00,
2013-04-15 10:20:00,23.1,17.0,29.84,NE,52,5.0,6.0,77,0.00,,,0.10,503,Wunderground v.1.15,2013-04-15 16:20:00,
2013-04-15 10:30:00,22.7,16.9,29.83,NE,41,7.0,7.0,78,0.00,,,0.10,647,Wunderground v.1.15,2013-04-15 16:30:00,
2013-04-15 10:40:00,23.0,17.2,29.83,ENE,69,7.0,8.0,78,0.00,,,0.10,812,Wunderground v.1.15,2013-04-15 16:40:00,
2013-04-15 11:00:00,21.6,16.1,29.83,ENE,76,6.0,8.0,79,0.00,,,0.10,360,Wunderground v.1.15,2013-04-15 17:00:00,
2013-04-15 11:10:00,22.1,16.6,29.81,NE,38,6.0,6.0,79,0.00,,,0.10,578,Wunderground v.1.15,2013-04-15 17:10:00,
2013-04-15 11:20:00,19.9,14.4,29.83,ENE,76,8.0,8.0,79,0.00,,,0.10,455,Wunderground v.1.15,2013-04-15 17:20:00,
2013-04-15 11:30:00,18.8,14.2,29.85,East,90,9.0,11.0,82,0.00,,,0.10,301,Wunderground v.1.15,2013-04-15 17:30:00,
2013-04-15 11:40:00,19.1,15.3,29.84,NE,52,8.0,8.0,85,0.00,,,0.10,374,Wunderground v.1.15,2013-04-15 17:40:00,
2013-04-15 11:50:00,19.9,15.3,29.86,ENE,67,5.0,5.0,82,0.00,,,0.10,265,Wunderground v.1.15,2013-04-15 17:50:00,
2013-04-15 12:00:00,20.2,15.6,29.85,NE,50,5.0,5.0,82,0.00,,,0.10,557,Wunderground v.1.15,2013-04-15 18:00:00,
2013-04-15 12:10:00,21.5,16.9,29.84,ENE,68,5.0,8.0,82,0.00,,,0.10,599,Wunderground v.1.15,2013-04-15 18:10:00,
2013-04-15 12:30:00,20.2,15.6,29.85,NE,56,8.0,8.0,82,0.00,,,0.10,320,Wunderground v.1.15,2013-04-15 18:30:00,
2013-04-15 12:40:00,20.8,16.2,29.86,ENE,74,6.0,9.0,82,0.00,,,0.10,381,Wunderground v.1.15,2013-04-15 18:40:00,
2013-04-15 12:50:00,19.0,15.0,29.86,East,89,9.0,9.0,84,0.00,,,0.10,410,Wunderground v.1.15,2013-04-15 18:50:00,
2013-04-15 13:00:00,18.9,15.1,29.85,ENE,59,9.0,12.0,85,0.00,,,0.10,418,Wunderground v.1.15,2013-04-15 19:00:00,
2013-04-15 13:10:00,18.9,15.1,29.86,East,86,9.0,9.0,85,0.00,,,0.10,394,Wunderground v.1.15,2013-04-15 19:10:00,
2013-04-15 13:21:00,18.6,15.1,29.88,ENE,69,8.0,8.0,86,0.00,,,0.11,443,Wunderground v.1.15,2013-04-15 19:21:00,
2013-04-15 13:30:00,20.3,16.2,29.89,ENE,67,5.0,8.0,84,0.00,,,0.11,531,Wunderground v.1.15,2013-04-15 19:30:00,
2013-04-15 13:40:00,21.1,16.7,29.89,NE,55,4.0,4.0,83,0.00,,,0.11,519,Wunderground v.1.15,2013-04-15 19:40:00,
2013-04-15 13:50:00,22.6,17.4,29.88,ENE,65,5.0,7.0,80,0.00,,,0.11,415,Wunderground v.1.15,2013-04-15 19:50:00,
2013-04-15 14:00:00,21.1,15.9,29.88,NE,54,5.0,5.0,80,0.00,,,0.11,439,Wunderground v.1.15,2013-04-15 20:00:00,
2013-04-15 14:10:00,21.8,17.2,29.88,NE,47,4.0,5.0,82,0.00,,,0.12,432,Wunderground v.1.15,2013-04-15 20:10:00,
2013-04-15 14:20:00,21.5,16.0,29.89,NE,54,4.0,4.0,79,0.00,,,0.12,466,Wunderground v.1.15,2013-04-15 20:20:00,
2013-04-15 14:30:00,20.2,15.0,29.90,East,80,7.0,7.0,80,0.00,,,0.12,397,Wunderground v.1.15,2013-04-15 20:30:00,
2013-04-15 14:40:00,20.9,16.5,29.89,ENE,58,5.0,5.0,83,0.00,,,0.12,473,Wunderground v.1.15,2013-04-15 20:40:00,
2013-04-15 14:50:00,20.8,16.2,29.90,ENE,65,5.0,5.0,82,0.00,,,0.12,332,Wunderground v.1.15,2013-04-15 20:50:00,
2013-04-15 15:01:00,19.8,15.2,29.91,East,79,5.0,6.0,82,0.00,,,0.12,338,Wunderground v.1.15,2013-04-15 21:01:00,
2013-04-15 15:10:00,20.8,15.9,29.90,NE,39,5.0,6.0,81,0.00,,,0.12,348,Wunderground v.1.15,2013-04-15 21:10:00,
2013-04-15 15:20:00,21.2,15.4,29.90,ENE,67,3.0,3.0,78,0.00,,,0.12,403,Wunderground v.1.15,2013-04-15 21:20:00,
2013-04-15 15:40:00,21.3,15.5,29.93,NE,42,4.0,4.0,78,0.00,,,0.12,394,Wunderground v.1.15,2013-04-15 21:40:00,
2013-04-15 16:00:00,21.6,15.2,29.92,NNE,30,4.0,4.0,76,0.00,,,0.12,283,Wunderground v.1.15,2013-04-15 22:00:00,
2013-04-15 16:10:00,21.4,15.3,29.93,NE,36,4.0,5.0,77,0.00,,,0.12,274,Wunderground v.1.15,2013-04-15 22:10:00,
2013-04-15 16:30:00,19.6,13.9,29.94,East,83,5.0,7.0,78,0.00,,,0.12,306,Wunderground v.1.15,2013-04-15 22:30:00,
2013-04-15 16:40:00,18.9,13.7,29.94,East,90,5.0,8.0,80,0.00,,,0.12,264,Wunderground v.1.15,2013-04-15 22:40:00,
2013-04-15 17:00:00,17.7,13.4,29.94,East,81,7.0,7.0,83,0.00,,,0.12,230,Wunderground v.1.15,2013-04-15 23:00:00,
2013-04-15 17:10:00,17.1,12.8,29.94,ENE,77,7.0,9.0,83,0.00,,,0.12,232,Wunderground v.1.15,2013-04-15 23:10:00,
2013-04-15 17:30:00,18.4,13.8,29.98,ENE,77,1.0,2.0,82,0.00,,,0.12,216,Wunderground v.1.15,2013-04-15 23:30:00,
2013-04-15 17:40:00,19.3,14.7,29.96,ENE,74,1.0,1.0,82,0.00,,,0.12,169,Wunderground v.1.15,2013-04-15 23:40:00,
2013-04-15 18:00:00,18.0,13.2,29.98,East,84,1.0,1.0,81,0.00,,,0.12,167,Wunderground v.1.15,2013-04-16 00:00:00,
2013-04-15 18:10:00,17.6,13.3,30.00,East,84,1.0,2.0,83,0.00,,,0.12,123,Wunderground v.1.15,2013-04-16 00:10:00,
2013-04-15 18:30:00,18.3,13.4,30.00,NNE,27,1.0,1.0,81,0.00,,,0.12,67,Wunderground v.1.15,2013-04-16 00:30:00,
2013-04-15 18:40:00,18.3,13.4,30.00,NNE,27,0.0,0.0,81,0.00,,,0.12,70,Wunderground v.1.15,2013-04-16 00:40:00,
2013-04-15 19:00:00,18.4,13.5,30.01,NNE,26,0.0,0.0,81,0.00,,,0.12,72,Wunderground v.1.15,2013-04-16 01:00:00,
2013-04-15 19:10:00,18.4,13.3,30.00,NNE,26,0.0,2.0,80,0.00,,,0.12,25,Wunderground v.1.15,2013-04-16 01:10:00,
2013-04-15 19:30:00,18.1,13.0,30.02,NNE,26,0.0,0.0,80,0.00,,,0.12,9,Wunderground v.1.15,2013-04-16 01:30:00,
2013-04-15 19:40:00,18.4,13.3,30.02,NNE,26,0.0,0.0,80,0.00,,,0.12,9,Wunderground v.1.15,2013-04-16 01:40:00,
2013-04-15 20:00:00,17.6,12.8,30.02,NNE,26,0.0,0.0,81,0.00,,,0.12,0,Wunderground v.1.15,2013-04-16 02:00:00,
2013-04-15 20:20:00,16.3,12.3,30.04,NNE,27,1.0,1.0,84,0.00,,,0.12,0,Wunderground v.1.15,2013-04-16 02:20:00,
2013-04-15 20:30:00,16.3,12.3,30.05,NNE,27,0.0,0.0,84,0.00,,,0.12,0,Wunderground v.1.15,2013-04-16 02:30:00,
2013-04-15 20:50:00,16.5,14.6,30.06,NNE,30,1.0,1.0,92,0.00,,,0.12,0,Wunderground v.1.15,2013-04-16 02:50:00,
2013-04-15 21:00:00,16.4,12.4,30.06,NNE,30,0.0,0.0,84,0.00,,,0.12,0,Wunderground v.1.15,2013-04-16 03:00:00,
2013-04-15 21:20:00,16.1,12.1,30.07,NE,34,1.0,1.0,84,0.00,,,0.12,0,Wunderground v.1.15,2013-04-16 03:20:00,
2013-04-15 21:30:00,15.9,12.2,30.07,NE,35,0.0,1.0,85,0.00,,,0.12,0,Wunderground v.1.15,2013-04-16 03:30:00,
2013-04-15 21:50:00,15.8,12.4,30.09,NNE,26,0.0,0.0,86,0.00,,,0.12,0,Wunderground v.1.15,2013-04-16 03:50:00,
2013-04-15 22:00:00,15.9,12.2,30.10,NNE,26,0.0,0.0,85,0.00,,,0.12,0,Wunderground v.1.15,2013-04-16 04:00:00,
2013-04-15 22:20:00,15.9,11.9,30.09,North,5,1.0,1.0,84,0.00,,,0.12,0,Wunderground v.1.15,2013-04-16 04:20:00,
2013-04-15 22:30:00,16.2,12.2,30.08,North,5,0.0,0.0,84,0.00,,,0.12,0,Wunderground v.1.15,2013-04-16 04:30:00,
2013-04-15 22:50:00,15.2,11.5,30.10,East,89,2.0,6.0,85,0.00,,,0.12,0,Wunderground v.1.15,2013-04-16 04:50:00,
2013-04-15 23:20:00,14.4,11.0,30.08,NNE,22,6.0,6.0,86,0.00,,,0.12,0,Wunderground v.1.15,2013-04-16 05:20:00,
2013-04-15 23:41:00,14.3,10.9,30.10,North,11,6.0,6.0,86,0.00,,,0.13,0,Wunderground v.1.15,2013-04-16 05:41:00,
2013-04-15 23:50:00,14.5,11.1,30.10,NNE,20,5.0,6.0,86,0.00,,,0.13,0,Wunderground v.1.15,2013-04-16 05:50:00,